SCP
0 0 0 0 0 0 0 0 0 0 0 0 0 0 0 0 0 0 0 0 0 0
0 0 0 0 0 0 0 0 0 0 0 0 0 0 0 0 0 0 0 0 0 0
0 0 0 0 0 0 0 0 0 0 0 0 0 0 0 0 0 0 0 0 0 0
0 0 0 0 0 0 0 0 0 0 0 0 0 0 0 0 0 0 0 0 0 0
0 0 0 0 0 0 0 0 0 0 0 0 0 0 0 0 0 0 0 0 0 0
0 0 0 0 0 0 0 0 0 0 0 0 0 0 0 0 0 0 0 0 0 0
0 0 0 0 0 0 0 0 0 0 0 0 0 0 0 0 0 0 0 0 0 0
0 0 0 0 0 0 0 0 0 0 0 0 0 0 0 0 0 0 0 0 0 0
0 0 0 0 0 0 0 0 0 0 0 0 0 0 0 0 0 0 0 0 0 0
0 0 0 0 0 0 0 0 0 0 0 0 0 0 0 0 0 0 0 0 0 0
0 0 0 0 0 0 0 0 0 0 0 0 0 0 0 0 0 0 0 0 0 0
0 0 0 0 0 0 0 0 0 0 0 0 0 0 0 0 0 0 0 0 0 0
0 0 0 0 0 0 0 0 0 0 0 0 0 0 0 0 0 0 0 0 0 0
0 0 0 0 0 0 0 0 0 0 0 0 0 0 0 0 0 0 0 0 0 0
Wind_Speed_500mb
67 49 49 51 43 49 50 45 38 38 38 38 40 45 45 45 45 41 42 47 47 42
60 54 40 44 40 43 44 43 37 36 39 39 39 39 40 39 43 40 39 43 39 41
45 47 38 37 37 37 39 38 34 34 35 35 37 37 38 40 46 40 40 45 48 44
40 39 38 34 36 39 38 37 34 32 33 35 37 40 40 35 35 43 44 38 40 41
34 34 33 34 32 33 33 33 31 28 29 30 28 27 29 29 27 28 28 30 31 30
30 28 28 29 28 27 25 24 23 21 21 21 20 19 18 18 17 17 20 24 27 30
29 31 31 31 28 24 22 20 18 15 13 11 9 8 10 14 18 21 25 29 33 37
31 31 29 28 28 26 24 20 17 12 8 7 9 13 16 20 23 26 28 31 36 39
32 32 31 30 29 26 22 17 13 10 6 6 9 15 20 25 28 32 36 38 40 44
36 34 31 28 26 23 20 16 11 6 3 8 14 21 28 32 34 37 41 46 51 53
36 34 32 28 24 20 15 9 3 2 9 16 22 29 35 39 41 44 46 48 50 52
36 33 30 24 19 13 6 3 6 12 18 23 26 29 35 40 44 47 48 49 50 54
37 31 26 19 13 8 6 11 18 23 22 22 25 30 37 44 49 50 50 49 52 53
33 27 21 16 12 14 17 19 17 18 21 23 27 32 37 41 47 53 56 59 62 64
Wind_Direction_500mb
238 238 238 247 245 247 249 251 253 246 244 249 250 252 257 258 263 271 273 278 275 278
231 235 231 241 241 240 243 245 245 245 249 250 253 258 258 260 263 272 269 274 278 280
222 225 224 227 233 236 239 241 242 245 247 251 254 254 259 261 262 261 266 277 276 277
205 207 214 220 225 229 232 237 241 242 236 244 249 251 250 245 255 270 274 270 275 280
213 212 208 209 216 222 229 234 233 235 236 231 235 249 257 260 265 271 279 284 288 294
187 186 188 194 200 203 210 214 221 226 230 233 239 246 254 263 271 281 290 297 301 304
187 187 190 189 185 185 188 190 188 191 197 207 224 251 276 288 291 295 298 301 301 301
181 176 172 169 167 166 168 171 172 177 196 236 274 289 295 299 302 304 305 306 306 306
173 171 170 169 167 164 167 166 168 180 211 260 290 300 305 305 305 305 304 305 303 304
178 176 173 171 167 163 164 163 167 173 254 297 306 308 306 303 310 315 317 316 315 314
178 178 174 172 166 159 154 152 142 341 328 319 312 313 319 318 318 318 319 319 318 316
179 179 172 167 156 147 131 62 348 336 329 325 328 320 314 316 318 318 321 323 324 324
177 174 168 158 139 109 52 19 352 331 326 317 318 322 323 324 325 326 326 329 330 332
169 163 149 122 76 30 358 327 313 313 318 326 329 330 329 329 331 332 335 335 336 335
Wind_Speed_850mb
67 49 49 51 43 49 50 45 38 38 38 38 40 45 45 45 45 41 42 47 47 42
60 54 40 44 40 43 44 43 37 36 39 39 39 39 40 39 43 40 39 43 39 41
45 47 38 37 37 37 39 38 34 34 35 35 37 37 38 40 46 40 40 45 48 44
40 39 38 34 36 39 38 37 34 32 33 35 37 40 40 35 35 43 44 38 40 41
34 34 33 34 32 33 33 33 31 28 29 30 28 27 29 29 27 28 28 30 31 30
30 28 28 29 28 27 25 24 23 21 21 21 20 19 18 18 17 17 20 24 27 30
29 31 31 31 28 24 22 20 18 15 13 11 9 8 10 14 18 21 25 29 33 37
31 31 29 28 28 26 24 20 17 12 8 7 9 13 16 20 23 26 28 31 36 39
32 32 31 30 29 26 22 17 13 10 6 6 9 15 20 25 28 32 36 38 40 44
36 34 31 28 26 23 20 16 11 6 3 8 14 21 28 32 34 37 41 46 51 53
36 34 32 28 24 20 15 9 3 2 9 16 22 29 35 39 41 44 46 48 50 52
36 33 30 24 19 13 6 3 6 12 18 23 26 29 35 40 44 47 48 49 50 54
37 31 26 19 13 8 6 11 18 23 22 22 25 30 37 44 49 50 50 49 52 53
33 27 21 16 12 14 17 19 17 18 21 23 27 32 37 41 47 53 56 59 62 64
Wind_Direction_850mb
238 238 238 247 245 247 249 251 253 246 244 249 250 252 257 258 263 271 273 278 275 278
231 235 231 241 241 240 243 245 245 245 249 250 253 258 258 260 263 272 269 274 278 280
222 225 224 227 233 236 239 241 242 245 247 251 254 254 259 261 262 261 266 277 276 277
205 207 214 220 225 229 232 237 241 242 236 244 249 251 250 245 255 270 274 270 275 280
213 212 208 209 216 222 229 234 233 235 236 231 235 249 257 260 265 271 279 284 288 294
187 186 188 194 200 203 210 214 221 226 230 233 239 246 254 263 271 281 290 297 301 304
187 187 190 189 185 185 188 190 188 191 197 207 224 251 276 288 291 295 298 301 301 301
181 176 172 169 167 166 168 171 172 177 196 236 274 289 295 299 302 304 305 306 306 306
173 171 170 169 167 164 167 166 168 180 211 260 290 300 305 305 305 305 304 305 303 304
178 176 173 171 167 163 164 163 167 173 254 297 306 308 306 303 310 315 317 316 315 314
178 178 174 172 166 159 154 152 142 341 328 319 312 313 319 318 318 318 319 319 318 316
179 179 172 167 156 147 131 62 348 336 329 325 328 320 314 316 318 318 321 323 324 324
177 174 168 158 139 109 52 19 352 331 326 317 318 322 323 324 325 326 326 329 330 332
169 163 149 122 76 30 358 327 313 313 318 326 329 330 329 329 331 332 335 335 336 335